Timeline UpdatesTrip UpdatesNews PostsPvt Posts♥♥Travel TipsAdmin PostsConv PostsFollowed PostsChat RequestsBlog PostsPNR Posts

Disclaimer
Search
 
 
Sat Oct 25, 2014 05:23:28 ISTHomeTrainsΣChainsAtlasPNRForumGalleryNewsFAQTripsMembersLoginFeedback
No Recent News for this Train
Other Trains in the News **new
Latest...
..
Tue Aug 05, 2014 (12:52PM)
⇐ Return Journey: Train# 57550

57549/Hyderabad Aurangabad Passenger

Time-Table HAS CHANGED.
Sep 16 2014 (12:53PM)
Change Departure Station:
Change Arrival Station:
Post a Train Travel TipPost a Train Travel Tip **new
Post a Comment/Question/Picture/VideoPost a Comment/Question/Picture/Video
Pantry/Catering
✕ NO Pantry Car
✕ NO Catering
Loco/Rake Reversals
PRLI/Parli Vaijnath (3); PBN/Parbhani Junction (3);
RSA - Rake Sharing
57549=>57550=>57547=>57548=>57549
Rake/Coach Composition
<<<<-LOCO-SLR-GEN-GEN-GEN-GEN-GEN-S3-S2-S1-GEN-GEN-SLR; Rake Reverses @ PBN & PRLI
Loco
MLY WDM 2A
News    PNR    Forum    Time-Table    Availability    Fare Chart    Map    Arr/Dep History    Trips    Gallery    ΣChains    X/O    Timeline    
Travel Time: 2h 45m    13 halts    Distance: 119 km    Avg Speed: 43 km/hr
Type: Passenger
Zone: SCR/South Central
Departs @ 21:35 (Avg 1m late)
Platform# 1
SMTWTFS
Hyderabad Deccan Nampally/HYB 
Arrives @ 00:20 +1 night (Avg 31m late)
Platform# ???
SMTWTFS
Kohir Deccan/KOHR 

13 halts. 23 intermediate Stations between Hyderabad Deccan Nampally and Kohir Deccan

Show ALL intermediate Stations  Show Old Time-Table

#TrkCodeStation NameX/OArrivesAvgDepartsAvgHaltPFDay#KmSpeedElevZoneAddress
1/==/HYBHyderabad Deccan Nampally (6)»  -21:35+1110.028510mSCRHyderabad, Telangana
2/==/KQDKhairatabad (2)  21:40-21:41-1m--12.333518mSCRHyderabad, Telangana
3/==/BMTBegumpet (2)  21:49 21:47+021:50 21:48+01m215.720531mSCRHyderabad, Telangana
4/==/SNFSanathnagar (3)X  21:59+1022:00+131m219.362547mSCRHyderabad, Telangana
5/==/HFZHafizpet (2)  22:09+1322:10+131m2118.652590mSCRHyderabad, Telangana
6/==/LPILingampalli (6)  22:21 22:16+1222:22 22:17+121m1123.849558mSCRRangareddy Dist., Telangana
7/==/NPLNagalapalle (2)X  22:29+1822:30+211m2133.660561mSCRMedak Dist., Telangana
8/==/SKPShankarpalli (2)  22:41+1622:42+161m2144.546574mSCRRangareddy Dist., Telangana
9/==/RPKRavulapalli Kalan (2)  22:49-22:50-1m2149.892582mSCRRangareddy Dist., Telangana
10/==/GGDGullaguda  22:54+2322:55+231m--156.046599mSCRRangareddy Dist., Telangana
11/==/CTFChitgidda  23:04+2523:05+301m--162.942607mSCRRangareddy Dist., Telangana
12/==/VKBVikarabad Junction (3)  23:20+2123:30+2410m2173.369633mSCRRangareddy Dist., Telangana
13|--|SSPDSadashivapet Road  23:49+3523:50+351m--195.157632mSCRRangareddy Dist., Telangana
14|--|MRFMarpalli  00:05+3800:06+381m--2109.242628mSCRRangareddu Dist., Telangana
15|--|KOHRKohir Deccan (1)•  00:20+3100:21+321m--2118.9104629mSCRMedak Dist., Telangana
16|--|ZBZahirabad (1)X  00:37 00:29+3800:38 00:30+391m12132.835634mSCRDist. Medak, Telangana
17|--|BIDRBidar (3)X  01:25+1601:30+195m--2164.678673mSCRBidar ph.no 08482 226404, Karnataka
18|--|BHLKBhalki  01:58 01:59+3302:00+362 1m--2202.198607mSCRBhalki ph.no 08484 262209, Karnataka
19|--|KCPKalgupur  02:09+4202:10+431m--2216.762554mSCRHulsoor, Karnataka
20|--|KMNRKamalnagar  02:19+4202:20+461m--2226.161570mSCRKamal Nagar, Karnataka
21|--|UDGRUdgir (1)  02:38 02:39+3802:40+412 1m12245.382649mSCRUdgir ph.no 02385 256022, Maharashtra
22|--|KTKRKumtha Khurd  02:49-02:50-1m--2257.67641mSCRState Highway 217, Maharashtra
23|--|HERHerX  03:29+3003:30+361m--2261.922646mSCRLatur, Maharashtra
24|--|AMBRAmbika Rohina  03:39-03:40-1m--2265.325657mSCRAmbika Devi Rd, Maharashtra
25|--|NGHWNageshwadi Halt  03:49-03:50-1m--2269.031657mSCRNageshwadi Halt, Maharashtra
26|--|CKXChakur  03:59+2604:00+471m--2273.628645mSCRMSH3, Maharashtra
27|--|LTRRLatur Road Junction (3)XO  04:10+2804:11+281m12278.335648mSCRLatur Road ph.no 02381 258044, Maharashtra
28|--|WDLNWadwal Nagnath (1)  04:19-04:20-1m12282.946638mSCRWadwal Nagnath, Maharashtra
29|--|JOAJanwal (1)X  04:29+2704:30+271m12289.957645mSCRLatur, Maharashtra
30|--|KRPRKarepur (1)O  04:39-04:40-1m12298.59620mSCRState Highway 168, Maharashtra
31|--|PNFPangaon (1)  05:29+2405:30+331m12305.754637mSCRPangaon, Maharashtra
32|--|MRTYMurti (1)  05:39-05:40-1m12313.911624mSCRState Highway 169, Maharashtra
33|--|GTUGhat Nandur (1)O  06:04+1606:05+441m12318.228634mSCRGhat Nadur, Maharashtra
34|--|PRLIParli Vaijnath (3)06:55+3107:15+2320m--2341.482462mSCRParli-Vaijnath, Maharashtra
35|--|UKHUkhali  07:24-07:25-1m--2353.756409mSCRState Highway 169, Maharashtra
36|--|WDNVadgaon new halt!!  07:29+3807:30+431m--2357.560398mSCRWadgaon, Maharashtra
37|--|GNHGangakher (2)X  07:44+5107:45+591m--2371.442392mSCRState Highway 217, Maharashtra
38|--|DNDIDhondi (1)X  08:04-08:05-1m--2384.560403mSCRState Highway 148, Maharashtra
39|--|PKNSPokharni Narasimha (2)X  08:09+1:0108:10+1:021m--2388.543417mSCRPokharni Nrsnha, Maharashtra
40|--|SNGRSanganapur  08:19-08:20-1m--2395.013420mSCRState Highway 148, Maharashtra
41|--|PBNParbhani Junction (3)08:50 09:10+2709:00 09:20+3310m22405.752414mSCRParbhani 431401, Maharashtra
42|--|PGPergaon  09:14 09:34+4509:15 09:35+451m--2417.891441mSCRParbhani, Maharashtra
43|--|DAVDevalgaon AvcharX  09:24 09:39+4809:25 09:40+481m--2423.862425mSCRParbhani, Maharashtra
44|--|MVOManwath Road (2)X  09:34 09:49+4809:35 09:50+501m--2433.136421mSCRParbhani, Maharashtra
45|--|DGPPDhengli Pimpalgaon  09:44 09:59+4809:45 10:00+481m--2438.564407mSCRSatuna, Maharashtra
46|--|SELUSelu (2)  09:59 10:09+4810:00 10:10+521m--2448.168436mSCRParbhani, Maharashtra
47|--|SCOSatunaX  10:09 10:19+5510:10 10:20+581m--2458.353440mSCRSatona, Maharashtra
48|--|UPRUsmanpur  10:19 10:29+5810:20 10:30+591m--2466.263444mSCRUsmanpur, Maharashtra
49|--|PTUPartur (2)  10:29 10:39+1:0310:30 10:40+1:061m--2475.748465mSCRJalna, Maharashtra
50|--|PDGParadgaon  10:39 10:49-10:40 10:50-1m--2482.994454mSCRUsmanpur, Maharashtra
51|--|RNERanjani  10:49 10:54+1:0710:50 10:55+1:071m--2489.175469mSCRJalna, Maharashtra
52|--|KODIKodi  10:59 11:04+1:1111:00 11:05+1:121m--2500.466473mSCRRanjani, Maharashtra
53|--|SVDSarwari  11:14+1:2111:15+1:211m--2510.323493mSCRRanjani, Maharashtra
54|--|JJalna (3)  11:40+4811:45 11:42+535 2m--2520.152502mSCRJalna, Maharashtra
55|--|BDUBadnapurX  12:04+1:0612:05+1:151m--2539.049523mSCRJalna, Maharashtra
56|--|KMVKarmad  12:24+1:1212:25+1:151m--2554.517567mSCRAurangabad, Maharashtra
57|--|CTHChikalthanX  12:39+1:2212:40+1:251m--2558.495582mSCRAurangabad, Maharashtra
58|--|MKDDMukundwadi Halt (1)  12:49-12:50-1m12572.77580mSCRAurangabad, Maharashtra
59|--|AWBAurangabad (5)  14:15+20-32582.7-561mSCRAurangabad 431001, Maharashtra
Scroll to Top
Scroll to Bottom